Flag for U.S.A. Weather past 2 weeks in Stamford, Connecticut, U.S.A.

Now
68 °F

Clear.


Feels Like: 68 °F
Forecast: 59 / 75 °F
Wind: 5 mph from Southwest

Location: Westchester County Airport

Current Time: May 4, 2015 at 11:18:46 PM

Latest Report: May 4, 2015 at 10:56 PM


Visibility: 10 mi

Pressure: 30.14 "Hg

Humidity: 40%

Dew point: 43 °F

Location of StamfordLocation

Historic Weather in Stamford — Graph

°F

Stamford temperature yesterday

Maximum temperature yesterday: 77 °F (at 2:56 PM)
Minimum temperature yesterday: 43 °F (at 3:56 AM)
Average temperature yesterday: 59 °F

Past Weeks' High & Low Weather Summary

 TemperatureHumidityPressure
High80 °F (May 4, 12:56 PM)100% (Apr 20, 6:56 PM)30.21 "Hg (Apr 20, 6:56 PM)
Low34 °F (Apr 25, 4:56 AM)21% (Apr 29, 5:56 PM)29.54 "Hg (Apr 22, 2:56 PM)
Average52 °F56%29.81 "Hg
* Reported Apr 19 9:56 PM — May 4 9:56 PM, Stamford, Weather by CustomWeather, © 2015

Note: Actual official high and low records may vary slightly from our data, if they occured in-between our weather recording intervals... More about our weather records

Advertising

Stamford weather history for previous 24 hours

 ConditionsComfort  
Time TempWeatherWind HumidityBarometerVisibility
9:56 PM
Mon, May 4
67 °FClear.6 mph45%30.14 "Hg10 mi
8:56 PM68 °FClear.6 mph44%30.13 "Hg10 mi
7:56 PM69 °FSunny.7 mph42%30.11 "Hg10 mi
6:56 PM73 °FSunny.7 mph34%30.10 "Hg10 mi
5:56 PM76 °FPassing clouds.13 mph31%30.11 "Hg10 mi
4:56 PM78 °FPassing clouds.14 mph27%30.12 "Hg10 mi
3:56 PM79 °FPassing clouds.13 mph27%30.14 "Hg10 mi
2:56 PM80 °FPassing clouds.18 mph26%30.14 "Hg10 mi
1:56 PM80 °FSunny.16 mph27%30.14 "Hg10 mi
12:56 PM80 °FPassing clouds.9 mph31%30.16 "Hg10 mi
11:56 AM76 °FPassing clouds.5 mph43%30.19 "Hg10 mi
10:56 AM72 °FSunny.6 mph49%30.20 "Hg10 mi
9:56 AM68 °FSunny.3 mph51%30.20 "Hg10 mi
8:56 AM62 °FSunny.No wind65%30.21 "Hg9 mi
7:56 AM54 °FSunny.3 mph80%30.21 "Hg8 mi
6:56 AM50 °FSunny.No wind89%30.20 "Hg7 mi
5:56 AM48 °FClear.No wind89%30.18 "Hg7 mi
4:56 AM49 °FClear.No wind86%30.16 "Hg9 mi
3:56 AM49 °FClear.No wind86%30.15 "Hg8 mi
2:56 AM49 °FClear.No wind86%30.15 "Hg10 mi
1:56 AM50 °FClear.No wind83%30.15 "Hg10 mi
12:56 AM52 °FClear.No wind77%30.15 "Hg10 mi
11:56 PM
Sun, May 3
52 °FClear.No wind77%30.14 "Hg10 mi
Weather by CustomWeather, © 2015

See weather overviewHow to use our weather pages